Miscellaneous Local Product
Issued by NWS North Platte, NE

Home | Current Version | Previous Version | Graphics & Text | Print | Product List | Glossary On
Versions: 1 2 3 4 5 6 7 8 9 10 11 12 13 14 15 16 17 18 19 20 21 22 23 24 25 26 27 28 29 30 31 32 33 34 35 36 37 38 39 40 41 42 43 44 45 46 47 48 49 50
000
AXUS43 KLBF 241310
MISLBF


WESTERN AND NORTH CENTRAL NEBRASKA HOURLY WEATHER ROUNDUP
NATIONAL WEATHER SERVICE NORTH PLATTE NE
800 AM CDT MON APR 24 2017

NOTE: "FAIR" INDICATES FEW OR NO CLOUDS BELOW 12,000 FEET WITH NO
SIGNIFICANT WEATHER AND/OR OBSTRUCTIONS TO VISIBILITY.

NOTE: STATIONS NOT REPORTING VARIABLES SUCH AS SKY/WEATHER OR
PRESSURE ARE PROVIDED BY RAWS AND APRS NETWORKS AND ARE NOT UNDER
NATIONAL WEATHER SERVICE QUALITY CONTROL.

...OBSERVATIONS IN AND NEAR THE EASTERN PANHANDLE OF NEBRASKA...

CITY           SKY/WX    TMP DP  RH WIND       PRES   REMARKS
PINE RIDGE     PTSUNNY   43  41  93 NE3       29.60R
CHADRON        MOSUNNY   50  42  74 N8G20     29.61R
ALLIANCE       CLOUDY    50  41  71 NW12      29.60R
SIDNEY         CLOUDY    52  37  56 W17       29.64R
CRESCENT LAKE    N/A     47  41  80 NW5         N/A
$$

...OBSERVATIONS IN NORTHERN NEBRASKA AND FAR SOUTHERN SOUTH DAKOTA...

CITY           SKY/WX    TMP DP  RH WIND       PRES   REMARKS
WINNER         FAIR      55  38  52 S18       29.51S
VALENTINE      MOSUNNY   51  35  54 SW5       29.53S
THEDFORD       PTSUNNY   49  38  65 CALM      29.56F
AINSWORTH      CLOUDY    48  38  68 S10       29.55S
O`NEILL        CLOUDY    53  33  47 S21G28    29.58S
ORD            CLOUDY    52  34  50 S12       29.59F
BROKEN BOW     PTSUNNY   50  35  56 S9        29.57F
VALENTINE NWR    N/A     46  34  62 S7          N/A
HALSEY           N/A     47  35  64 S6          N/A
BUTTE            N/A     52  38  58 N13G25      N/A
CHAMBERS         N/A     51  34  52 S12         N/A
EWING            N/A     52  37  56 S13G21      N/A
$$

...OBSERVATIONS IN SOUTHWEST NEBRASKA AND FAR NORTHEAST COLORADO...

CITY           SKY/WX    TMP DP  RH WIND       PRES   REMARKS
HOLYOKE        FAIR      54  43  66 NW7       29.61R
IMPERIAL       CLOUDY    44  38  79 NW13      29.58R
OGALLALA       CLOUDY    45  36  72 W7        29.60R
NORTH PLATTE   CLOUDY    47  38  71 E5        29.56R
MCCOOK         MOSUNNY   49  38  65 S3        29.54R
LEXINGTON      CLOUDY    51  36  55 S14G20    29.57S
STAPLETON        N/A     46  37  71 CALM        N/A
GOTHENBURG       N/A     49  33  55 SE6         N/A
CALLAWAY         N/A     46  36  68 S16         N/A
$$

...OBSERVATIONS IN CENTRAL LINCOLN COUNTY AREA...

CITY           SKY/WX    TMP DP  RH WIND       PRES   REMARKS
N.P. AIRPORT   CLOUDY    47  38  71 E5        29.56R
N.P. DOWNTOWN    N/A     49  37  63 CALM        N/A
N.P. HILLCREST   N/A     48  38  68 CALM        N/A
$$

...SOME OBSERVATIONS FROM AROUND THE REGION...

CITY           SKY/WX    TMP DP  RH WIND       PRES   REMARKS
DENVER         PTCLDY    44  36  73 SE8       29.69R
LIMON          CLOUDY    48  38  68 NW6       29.69R
ASPEN          CLOUDY    37  34  89 S6        29.85S WCI  32
LARAMIE        CLOUDY    37  29  72 N7        29.76R WCI  32
CASPER         CLOUDY    35  33  92 S7        29.72R WCI  29
CHEYENNE       CLOUDY    45  29  53 NW20G26   29.74R
SCOTTSBLUFF    CLOUDY    52  39  61 NW12      29.64R
GRAND ISLAND   MOSUNNY   52  36  54 S16G23    29.64F
OMAHA          CLOUDY    55  36  48 S22G28    29.77F
SIOUX FALLS    CLOUDY    53  37  54 S18G30    29.64F
PIERRE         PTSUNNY   41  37  86 NW18      29.55R
RAPID CITY     FOG       37  36  96 N18       29.61R VSB 1/4 WCI  27
BISMARCK       LGT RAIN  34  32  92 NE8       29.68R WCI  27
KANSAS CITY    CLOUDY    49  42  77 S8        29.90F
HILL CITY      CLOUDY    53  37  54 S15G22    29.58S
WICHITA        MOSUNNY   51  40  65 S16       29.82F
DODGE CITY     CLOUDY    50  36  58 S20G28    29.67F
OKLAHOMA CITY  MOSUNNY   49  42  77 S9        29.90F
DALLAS         MOSUNNY   54  47  77 CALM      29.94F
AMARILLO       SUNNY     50  34  54 S18       29.80R
$$




USA.gov is the U.S. government's official web portal to all federal, state and local government web resources and services.